Temp_Advection
nan nan nan nan nan nan nan nan nan nan nan nan nan nan nan nan nan nan nan nan nan nan nan nan nan nan nan nan nan nan nan nan nan nan nan nan nan nan nan nan nan nan nan
nan 0 1 0 0 0 0 0 0 0 0 -0 -0 0 0 1 1 0 -0 0 0 0 0 0 0 0 0 0 1 1 1 0 0 1 1 1 0 0 0 0 0 0 nan
nan 0 1 0 0 0 0 0 0 0 -0 -0 -0 0 0 1 1 1 0 1 0 0 0 0 0 0 0 1 1 0 -0 0 0 1 1 1 0 0 0 0 0 0 nan
nan 1 1 1 0 0 0 0 1 0 0 -0 -0 0 0 1 1 1 1 1 1 0 -0 0 0 0 1 1 1 -0 -0 0 1 1 1 1 0 0 0 0 0 0 nan
nan 1 1 1 0 0 0 0 0 0 0 0 -0 -0 0 1 1 1 1 1 1 0 -0 -0 0 1 1 1 1 -0 -0 0 1 1 1 0 0 0 0 0 0 0 nan
nan 0 0 0 0 0 0 0 0 0 -0 0 0 0 0 0 1 1 1 1 1 0 0 1 0 -0 1 1 0 -0 0 0 1 1 0 0 0 0 0 0 0 0 nan
nan 0 0 0 0 -0 -1 -0 1 0 -0 0 0 0 0 1 1 0 0 1 1 1 1 -0 -0 0 1 0 -0 -0 0 1 0 0 0 0 0 0 0 0 0 0 nan
nan 0 0 1 1 1 -0 -1 -0 -0 0 0 0 0 1 1 0 0 1 1 1 0 -0 -0 1 1 0 -0 -0 0 0 0 -0 -0 -0 0 0 0 0 0 0 0 nan
nan 0 1 1 0 0 0 -0 -0 -0 -0 0 0 0 0 0 0 0 0 0 0 0 0 1 1 0 -0 -0 0 0 -0 -0 0 0 0 0 0 0 0 0 0 0 nan
nan 1 0 -0 0 0 0 -0 -0 0 0 0 0 0 0 0 0 0 0 0 0 1 1 0 0 -0 -0 0 0 0 0 0 0 0 0 0 0 0 0 0 0 0 nan
nan 1 0 -0 0 0 0 -0 0 0 0 0 0 0 0 0 0 0 0 0 0 0 0 0 0 0 0 0 0 0 0 0 0 0 0 0 0 0 0 0 0 0 nan
nan 0 0 0 0 0 0 0 0 0 0 0 0 0 0 0 0 0 0 0 0 0 0 0 0 0 0 0 0 0 0 0 0 0 0 0 0 0 0 0 0 0 nan
nan 0 0 0 0 0 0 0 0 0 0 0 0 0 0 0 0 0 0 0 0 0 0 0 0 -0 0 0 0 0 0 0 0 0 0 0 0 0 0 0 0 0 nan
nan 0 0 0 0 0 0 0 0 0 0 0 0 0 0 0 0 0 0 0 0 0 0 0 0 0 0 0 0 0 0 0 0 0 0 0 0 0 0 0 0 0 nan
nan 0 0 0 0 0 0 0 0 0 0 0 0 0 0 0 0 0 0 0 0 0 0 0 0 0 0 0 0 0 0 0 0 0 0 0 0 0 0 0 0 0 nan
nan 0 0 0 0 0 0 0 0 0 0 0 0 0 0 0 0 0 0 0 0 0 0 0 0 0 0 0 0 0 0 0 0 0 0 0 0 0 0 0 0 0 nan
nan 0 0 0 0 0 0 0 0 0 0 0 0 0 0 0 0 0 0 0 0 0 0 0 0 0 0 0 0 0 0 0 0 0 0 0 0 0 0 0 0 0 nan
nan 0 0 0 0 0 0 0 0 0 0 -0 0 0 -0 -0 -0 0 0 0 0 0 0 0 0 0 0 0 0 0 0 0 0 0 0 0 0 0 0 0 0 0 nan
nan 0 0 0 0 0 0 0 0 0 0 0 -0 -0 -0 -0 -0 -0 0 0 0 0 0 0 0 0 0 0 0 0 0 0 0 0 0 0 0 0 0 0 0 0 nan
nan 0 0 0 0 0 -0 0 0 -0 -0 0 -0 0 0 -0 -0 -0 -0 -0 0 0 0 0 0 0 0 0 0 0 0 0 0 0 0 0 0 0 0 0 0 0 nan
nan 0 0 0 0 0 0 0 0 0 0 0 0 0 0 0 0 0 0 0 0 0 0 0 0 0 0 0 0 0 0 0 0 0 0 0 0 0 0 0 0 0 nan
nan 0 0 0 0 0 0 0 0 0 0 0 0 0 0 0 0 0 0 0 0 0 0 0 0 0 0 0 0 0 0 0 0 0 0 0 0 0 0 0 0 0 nan
nan -0 -0 -0 0 0 0 0 0 0 0 0 0 0 0 0 0 0 0 -0 -0 -0 0 0 0 0 0 0 0 0 0 0 0 0 0 0 0 0 0 0 0 0 nan
nan 0 -0 -0 -0 -0 0 0 0 0 0 -0 -0 0 0 0 0 -0 -0 0 0 0 0 0 0 0 0 0 0 0 -0 -0 0 0 0 0 0 0 0 0 0 0 nan
nan 0 0 0 0 0 0 0 0 0 0 0 0 0 -0 -0 -0 -0 -0 -0 -0 -0 -0 -0 -0 -0 0 0 0 0 0 0 0 0 0 0 0 0 0 0 0 0 nan
nan nan nan nan nan nan nan nan nan nan nan nan nan nan nan nan nan nan nan nan nan nan nan nan nan nan nan nan nan nan nan nan nan nan nan nan nan nan nan nan nan nan nan
Wind_Speed
6 10 12 13 14 16 17 19 18 20 19 18 20 21 22 21 21 20 19 18 18 18 18 18 18 17 16 16 15 16 18 16 15 13 16 14 13 9 7 5 3 2 5
9 12 12 13 13 15 15 16 17 18 17 20 22 21 25 25 23 21 19 18 17 17 18 16 15 14 13 12 13 13 13 13 13 16 18 18 14 11 9 7 5 2 1
13 15 13 13 14 14 14 14 15 14 16 18 19 22 25 25 26 22 21 19 18 17 17 16 15 15 14 13 11 13 9 9 11 15 18 19 17 14 12 9 7 4 4
16 17 17 16 16 16 16 16 15 15 16 18 21 23 25 27 27 23 21 22 21 17 18 18 17 17 16 15 12 11 13 10 11 14 16 18 17 15 13 11 9 7 5
19 19 20 20 20 20 19 18 18 17 17 16 21 24 21 25 28 24 24 22 18 16 18 19 19 19 19 17 16 13 14 13 13 15 17 18 17 16 15 13 11 8 6
18 20 21 23 25 25 23 21 21 21 16 15 17 20 23 26 28 25 20 19 17 17 19 18 17 16 18 13 9 12 13 13 14 15 16 16 15 15 15 14 14 11 9
20 21 23 25 27 26 25 24 20 15 12 15 16 15 20 28 23 18 17 18 17 18 19 18 16 17 12 11 12 12 12 14 13 12 13 13 13 14 15 15 15 13 10
21 22 23 21 19 19 17 15 11 10 11 12 11 17 21 20 18 17 16 16 15 15 16 19 19 14 9 9 11 13 14 14 13 13 13 11 12 13 14 12 11 11 10
17 17 17 16 15 13 12 11 10 11 11 11 13 13 15 15 14 13 13 14 15 17 19 18 12 4 7 7 8 10 14 11 14 10 9 9 9 12 12 12 12 11 11
15 15 12 11 11 11 11 9 8 8 10 10 10 11 11 11 11 12 12 13 15 13 10 7 4 7 6 6 8 9 8 8 8 9 9 8 8 8 10 11 11 10 7
14 13 11 11 10 8 8 8 7 7 6 8 9 9 9 9 9 11 12 12 10 8 8 8 4 4 6 8 10 9 7 7 10 9 10 10 10 9 9 9 10 9 8
13 10 9 8 9 7 6 6 5 5 7 8 8 7 7 7 7 8 9 9 8 7 6 2 5 5 7 9 11 10 8 8 9 9 9 10 10 9 9 9 8 6 5
12 8 5 8 9 5 6 4 4 6 6 6 6 7 8 7 6 5 8 10 8 7 4 3 5 5 10 10 10 9 9 10 10 10 9 9 9 8 8 7 7 6 6
10 8 7 7 6 5 5 4 4 5 5 5 6 8 9 8 7 7 8 8 9 7 7 9 8 8 11 11 10 11 11 11 10 10 9 9 9 8 8 7 7 7 5
8 8 8 7 7 6 4 3 2 3 3 3 5 7 9 9 8 5 3 1 2 4 7 10 10 10 13 12 11 11 11 11 11 10 9 8 8 8 7 7 6 5 5
7 8 8 8 7 6 5 4 4 4 2 4 4 5 7 7 7 7 7 6 4 3 4 7 11 11 11 11 9 10 11 11 10 9 8 8 8 7 6 5 4 3 3
9 8 8 7 7 7 6 5 4 4 4 3 5 7 8 7 6 7 9 9 6 4 3 5 10 11 12 11 10 9 9 10 9 9 8 8 7 6 5 5 4 3 2
8 7 7 7 7 6 5 5 4 5 5 7 7 6 6 6 5 5 10 12 12 9 7 6 10 13 13 11 11 10 9 8 8 8 7 7 6 5 4 4 4 3 2
9 8 7 7 7 7 7 6 5 5 7 9 9 7 6 6 4 4 6 9 8 8 8 7 10 11 10 10 9 9 8 7 7 7 7 7 6 6 4 3 2 2 3
8 7 7 8 9 10 8 8 8 8 9 10 9 7 7 7 8 5 5 3 2 7 9 9 11 11 10 9 9 9 8 7 8 8 7 7 7 6 5 4 4 4 5
7 7 9 10 10 10 9 9 8 8 8 7 7 8 6 4 4 3 3 3 3 3 9 11 11 10 9 9 9 8 8 7 7 7 8 7 7 7 6 5 6 6 6
7 8 11 11 11 11 10 8 7 8 7 8 9 10 8 7 6 5 5 7 9 8 9 10 8 8 8 8 9 8 7 7 7 8 8 8 8 7 7 9 9 9 8
7 10 13 12 12 11 10 9 7 7 7 8 9 9 9 9 10 9 8 7 5 10 11 10 8 8 8 8 9 9 7 7 7 8 9 10 10 11 11 9 10 10 10
8 10 11 12 11 11 10 9 8 7 7 7 7 7 6 5 6 6 7 10 10 10 9 8 7 7 7 7 8 7 8 9 10 11 12 13 13 11 10 10 10 11 11
9 10 10 10 10 10 10 10 8 9 9 10 9 9 9 7 7 7 9 10 9 8 8 8 8 7 7 8 8 9 10 10 11 13 13 13 12 11 11 12 13 12 13
10 10 10 11 10 10 10 10 10 10 10 11 9 8 9 8 8 8 9 10 9 8 8 7 6 5 6 8 9 9 10 11 11 11 11 11 11 13 14 14 13 13 14
Wind_Direction
286 291 281 278 279 282 286 291 289 292 291 295 294 286 283 283 285 285 285 282 272 263 254 244 240 238 236 230 224 217 215 219 220 212 221 223 231 242 246 245 256 300 344
278 287 276 269 275 278 282 286 286 289 290 289 288 287 281 276 276 275 276 272 267 260 252 243 233 227 219 210 201 200 206 208 217 221 214 215 215 224 229 229 222 210 41
274 279 275 273 277 276 279 278 279 284 294 301 294 285 277 278 276 271 274 267 264 255 249 245 236 226 212 212 237 254 254 241 223 219 204 203 207 210 217 215 220 207 196
270 274 275 279 283 286 293 287 287 292 296 301 298 289 271 266 266 259 260 255 261 247 250 246 240 231 232 250 249 239 251 225 208 203 202 201 205 206 207 213 210 204 205
266 272 280 284 288 291 294 290 290 295 296 296 297 292 279 274 261 255 270 256 254 246 244 239 237 242 262 264 228 228 228 227 217 205 202 202 205 207 209 208 204 197 188
269 274 275 283 288 292 292 290 291 297 292 287 289 286 276 280 255 243 257 263 254 236 239 240 245 255 255 238 232 235 232 226 220 212 211 208 212 214 208 206 207 196 170
273 277 278 284 288 289 288 287 286 293 293 291 288 280 276 263 246 258 263 263 248 240 241 252 270 269 249 237 232 242 232 214 202 216 223 219 222 216 208 203 201 202 201
283 286 287 286 282 289 299 301 292 289 285 287 283 286 274 254 258 261 267 249 240 241 255 267 259 238 243 254 229 228 230 214 210 217 220 217 207 206 200 201 199 197 197
289 290 291 284 292 299 299 298 292 283 275 262 286 274 255 256 262 265 260 248 251 254 253 251 238 205 231 229 217 213 213 206 206 199 189 184 189 193 193 197 192 185 177
301 299 294 296 290 292 292 290 290 284 270 273 263 251 255 260 265 266 259 257 257 247 231 197 168 212 214 201 184 193 197 184 169 163 162 156 158 175 180 184 192 192 189
302 306 308 306 290 283 285 284 274 267 267 256 254 256 257 252 250 250 251 253 253 230 200 158 159 202 204 191 167 172 170 177 161 154 142 136 136 142 149 168 190 193 193
301 304 317 316 318 281 271 257 247 264 259 261 258 249 238 232 229 245 236 228 232 208 166 176 230 228 195 182 178 173 171 174 164 157 152 142 137 132 125 128 136 144 140
295 295 284 296 307 255 238 251 267 271 271 259 251 243 236 221 221 216 217 217 218 213 206 227 220 206 182 179 174 168 169 166 164 163 162 152 146 141 131 131 128 124 114
288 275 259 261 267 240 232 251 281 285 264 247 238 234 228 219 209 205 215 222 224 217 219 212 202 181 168 172 168 166 163 161 160 161 158 151 145 142 142 132 126 119 110
284 271 258 256 250 231 222 249 253 241 241 249 250 242 230 218 217 223 205 229 159 152 185 183 190 178 173 174 170 172 169 167 164 161 151 149 153 155 151 140 127 120 113
271 262 255 239 230 225 231 229 207 192 211 223 215 217 211 202 204 215 215 211 181 156 168 187 190 187 183 183 191 182 171 164 162 160 154 150 151 151 152 151 149 138 121
261 248 235 227 221 221 220 212 210 186 163 195 204 197 184 195 188 198 199 207 213 209 222 196 191 191 189 193 193 187 178 168 166 161 157 155 154 151 153 157 159 168 175
252 235 220 209 204 203 198 194 194 200 169 157 148 150 148 137 138 187 205 214 214 209 214 197 193 194 196 194 187 185 185 182 178 175 173 171 166 162 160 157 161 176 213
231 209 194 182 177 176 175 175 180 180 169 164 159 157 146 128 137 171 199 219 228 229 229 212 191 191 190 190 191 189 185 187 186 186 187 188 189 189 187 187 201 233 246
193 186 178 171 170 167 164 171 172 170 177 197 207 207 192 172 179 174 123 125 179 216 214 204 189 185 183 189 192 188 188 194 196 196 198 201 204 206 211 217 227 242 256
178 177 168 163 164 162 163 166 168 169 176 188 203 212 206 185 180 190 209 242 272 235 193 186 184 184 185 190 197 200 202 203 203 206 211 213 210 215 221 232 258 262 263
164 158 162 161 162 162 164 168 171 178 190 195 197 203 208 208 211 229 235 251 263 235 202 184 185 183 189 198 201 205 209 215 223 225 222 219 216 221 231 251 256 259 265
164 164 161 161 162 165 166 165 168 175 186 193 195 203 207 211 228 245 242 248 208 175 172 177 185 193 192 193 197 202 220 236 238 227 223 222 230 246 253 254 255 259 266
162 160 161 164 166 163 162 164 168 170 169 168 169 171 179 202 222 211 200 170 155 156 166 174 186 191 193 201 213 222 230 241 239 232 230 239 249 252 253 258 266 265 266
163 161 161 164 166 168 172 174 174 172 171 168 164 171 179 179 176 172 163 164 164 166 177 179 184 196 205 214 221 229 235 233 241 246 245 245 248 250 254 262 264 263 267
171 172 172 173 174 177 179 180 178 174 175 175 174 182 190 186 186 190 187 181 182 185 188 187 198 215 224 231 235 240 247 251 249 247 248 252 256 258 260 260 259 263 265
Height
1498 1499 1499 1499 1499 1498 1498 1499 1500 1500 1500 1499 1498 1498 1498 1498 1498 1498 1498 1497 1498 1500 1500 1498 1500 1501 1504 1504 1505 1506 1506 1507 1510 1514 1518 1521 1524 1525 1526 1527 1528 1528 1526
1493 1494 1495 1494 1493 1494 1494 1494 1495 1495 1495 1495 1494 1494 1494 1494 1495 1495 1495 1494 1494 1495 1497 1497 1498 1498 1500 1501 1503 1504 1504 1502 1503 1506 1512 1515 1519 1521 1523 1525 1526 1526 1525
1490 1489 1489 1490 1490 1490 1489 1488 1489 1488 1489 1489 1489 1490 1489 1490 1491 1490 1491 1492 1493 1492 1494 1496 1496 1497 1497 1499 1500 1501 1498 1498 1499 1503 1506 1511 1515 1517 1520 1521 1524 1523 1524
1487 1486 1486 1485 1485 1485 1484 1483 1483 1482 1481 1482 1483 1484 1485 1485 1485 1485 1487 1488 1488 1491 1492 1492 1494 1495 1495 1495 1497 1497 1495 1495 1497 1501 1504 1508 1512 1512 1516 1519 1521 1521 1522
1483 1483 1483 1482 1481 1481 1479 1478 1476 1475 1475 1475 1477 1479 1480 1481 1481 1480 1482 1483 1485 1487 1490 1490 1489 1491 1493 1493 1495 1493 1493 1493 1496 1498 1502 1505 1506 1509 1511 1515 1518 1519 1519
1480 1480 1480 1479 1477 1475 1473 1471 1470 1471 1471 1471 1472 1474 1476 1476 1477 1476 1478 1480 1482 1483 1485 1487 1487 1487 1489 1490 1491 1493 1493 1492 1493 1496 1499 1500 1503 1506 1507 1511 1515 1515 1517
1474 1475 1475 1474 1473 1471 1468 1466 1465 1466 1466 1467 1468 1470 1473 1473 1474 1476 1476 1477 1477 1480 1482 1484 1485 1485 1486 1486 1487 1490 1491 1491 1491 1494 1498 1498 1499 1502 1505 1507 1510 1512 1513
1470 1470 1469 1468 1468 1467 1465 1462 1462 1462 1463 1463 1465 1466 1468 1471 1473 1473 1474 1475 1476 1478 1480 1481 1481 1480 1481 1484 1484 1486 1490 1490 1489 1492 1494 1496 1497 1500 1502 1506 1508 1510 1510
1465 1464 1463 1463 1462 1462 1462 1461 1461 1460 1461 1461 1462 1462 1465 1467 1470 1471 1472 1473 1475 1475 1476 1476 1477 1478 1482 1481 1482 1484 1489 1487 1489 1489 1492 1494 1495 1499 1500 1503 1505 1507 1508
1461 1460 1460 1460 1459 1459 1459 1458 1458 1458 1458 1459 1460 1461 1463 1464 1467 1469 1470 1472 1473 1473 1474 1474 1476 1479 1481 1481 1483 1485 1486 1488 1490 1490 1491 1492 1495 1498 1499 1501 1504 1505 1506
1457 1456 1456 1456 1455 1455 1456 1456 1455 1456 1456 1458 1459 1460 1461 1463 1464 1466 1469 1470 1472 1472 1473 1474 1475 1479 1480 1481 1482 1485 1486 1489 1491 1491 1491 1492 1495 1498 1499 1500 1502 1503 1505
1453 1452 1452 1454 1453 1452 1453 1454 1453 1455 1455 1456 1457 1458 1459 1462 1463 1465 1467 1470 1471 1472 1472 1473 1474 1477 1479 1481 1483 1485 1487 1489 1491 1492 1493 1494 1496 1498 1499 1500 1502 1503 1503
1449 1448 1448 1450 1449 1449 1451 1451 1452 1454 1454 1455 1456 1457 1459 1460 1461 1463 1467 1469 1470 1471 1471 1472 1473 1476 1479 1481 1482 1484 1488 1489 1491 1492 1495 1495 1496 1499 1500 1501 1502 1503 1504
1445 1445 1445 1446 1447 1448 1449 1450 1450 1452 1453 1454 1455 1457 1458 1459 1460 1462 1466 1468 1469 1470 1471 1471 1472 1476 1479 1480 1482 1485 1488 1490 1491 1493 1495 1496 1497 1499 1501 1502 1503 1504 1506
1442 1442 1443 1444 1444 1445 1447 1448 1449 1451 1453 1453 1455 1456 1458 1459 1460 1463 1466 1468 1468 1469 1470 1471 1473 1476 1478 1480 1483 1486 1489 1490 1491 1493 1495 1496 1498 1500 1502 1503 1503 1505 1506
1439 1440 1441 1441 1442 1444 1445 1446 1448 1450 1452 1453 1454 1455 1457 1459 1460 1463 1465 1467 1468 1469 1470 1471 1473 1476 1479 1481 1484 1487 1489 1490 1492 1493 1494 1497 1499 1501 1502 1503 1505 1506 1506
1436 1437 1438 1439 1440 1442 1443 1445 1447 1449 1450 1452 1454 1455 1456 1458 1459 1461 1465 1466 1468 1469 1470 1471 1473 1476 1479 1482 1484 1487 1489 1490 1492 1493 1495 1497 1499 1501 1502 1503 1504 1505 1506
1434 1435 1436 1437 1438 1440 1442 1444 1446 1449 1449 1452 1454 1456 1457 1458 1459 1461 1463 1465 1467 1469 1470 1472 1473 1476 1478 1481 1483 1486 1488 1490 1492 1493 1495 1497 1499 1501 1502 1503 1504 1504 1505
1432 1433 1433 1435 1437 1439 1441 1444 1446 1448 1450 1453 1455 1457 1458 1459 1461 1462 1463 1465 1467 1469 1470 1471 1473 1476 1478 1481 1483 1486 1487 1489 1491 1493 1494 1496 1498 1500 1502 1502 1503 1504 1505
1429 1430 1432 1434 1436 1438 1441 1444 1446 1448 1450 1453 1455 1457 1459 1460 1462 1462 1464 1465 1466 1467 1469 1470 1473 1475 1478 1481 1482 1485 1487 1488 1490 1492 1494 1495 1497 1498 1500 1501 1502 1503 1504
1428 1429 1431 1433 1436 1438 1441 1444 1446 1448 1450 1452 1455 1457 1459 1461 1462 1463 1464 1465 1466 1467 1468 1470 1473 1475 1477 1479 1481 1483 1485 1487 1489 1491 1492 1494 1495 1497 1498 1500 1501 1501 1501
1427 1428 1431 1433 1436 1439 1441 1443 1445 1447 1449 1452 1454 1456 1458 1460 1462 1463 1464 1465 1465 1466 1468 1470 1472 1474 1477 1479 1481 1482 1484 1486 1487 1489 1490 1492 1493 1495 1496 1497 1498 1498 1498
1427 1428 1431 1433 1436 1439 1441 1443 1445 1447 1449 1451 1453 1455 1457 1459 1461 1462 1463 1463 1463 1465 1467 1470 1472 1474 1475 1477 1479 1481 1482 1484 1485 1487 1488 1489 1491 1492 1493 1494 1494 1494 1495
1427 1429 1431 1434 1436 1439 1441 1443 1445 1447 1448 1450 1452 1454 1456 1458 1459 1460 1461 1463 1464 1466 1468 1469 1471 1472 1474 1476 1477 1479 1480 1481 1483 1484 1485 1486 1487 1488 1489 1490 1490 1491 1491
1428 1430 1432 1434 1437 1439 1441 1443 1445 1447 1449 1451 1453 1455 1456 1458 1459 1460 1461 1463 1465 1466 1468 1469 1470 1471 1472 1474 1475 1476 1477 1478 1480 1481 1482 1483 1484 1485 1486 1486 1486 1487 1487
1429 1431 1432 1434 1436 1438 1441 1443 1445 1447 1449 1451 1453 1455 1456 1458 1459 1461 1462 1463 1465 1466 1467 1468 1469 1470 1471 1472 1473 1474 1475 1476 1477 1477 1478 1479 1480 1481 1481 1482 1482 1483 1483